User: anonymous   Login
Location: Treviso
(45.6669°N, 12.2430°E)
Time: 20:03:17
(UTC+02:00)
Language:

NOAA 15 - Orbit

View from above orbital plane
View from above orbital plane
View from above satellite
View from above satellite

Ground track
Ground track

The orbit data is extracted from the following two-line orbital elements,

1 25338U 98030A   19110.96443914 +.00000026 +00000-0 +29576-4 0  9994
2 25338 098.7518 132.3220 0011355 057.8542 302.3737 14.25903040088627
Epoch (UTC): 20 April 2019 23:08:47
Eccentricity: 0.0011355
inclination: 98.7518°
perigee height: 797 km
apogee height: 813 km
right ascension of ascending node: 132.3220°
argument of perigee: 57.8542°
revolutions per day: 14.25903040
mean anomaly at epoch: 302.3737°
orbit number at epoch: 8862

The dashed part of the orbit path shows where the satellite is in the earth's shadow,  

DLR